Volver al catálogo

YAOGAN-39 02C

ActivoMilitarVLEO
NORAD 57890·PAYLOAD·🇨🇳 China

Lanzado Sep 17, 2023 desde Xichang Satellite Launch Center

Loading…

Próximos Pases (próximas 24 horas)

TLE

ActualizadoSource: Space-Track

Época: Sep 14, 2026, 14:17 UTC

1 57890U 23145E   26257.59517054  .00004665  00000-0  23260-3 0  9999
2 57890  34.9946  27.2082 0002060 278.1667  81.8813 15.16952840166443

Sigue YAOGAN-39 02C en tiempo real con AllMySat

Download on the App Store